Location: Cudham
(51.3000°N, 0.0667°E)
Time: 17:21:27
(UTC+00:00)

USA 229 DEB - Pass Details

Date: 24 April 2026
Orbit: 844 x 1364 km, 63.4° (Epoch: 10 January)

Event Time Altitude Azimuth Distance (km) Brightness Sun altitude
Rises 21:36:14 0° 310° (NW) 3,848 8.1 -18.6°
Reaches altitude 10° 21:38:53 10° 316° (NW) 2,966 7.3 -18.9°
Maximum altitude 21:45:49 50° 31° (NNE) 1,503 4.6 -19.5°
Enters shadow 21:52:01 16° 101° (E) 2,815 5.5 -20.0°
